Location: Newark
(49.1939°N, 0.8136°E)
Time: 10:16:59
(UTC+00:00)

Envisat - Pass Details

Date: 27 November 2019
Orbit: 764 x 766 km, 98.1° (Epoch: 08 December)

Event Time Altitude Azimuth Distance (km) Brightness Sun altitude
Rises 17:19:38 0° 152° (SSE) 3,221 6.1 -12.0°
Reaches altitude 10° 17:21:58 10° 148° (SSE) 2,299 5.3 -12.3°
Maximum altitude 17:26:55 58° 71° (ENE) 895 3.0 -13.1°
Drops below altitude 10° 17:31:55 10° 353° (N) 2,314 5.4 -13.9°
Sets 17:34:15 0° 350° (N) 3,244 6.2 -14.3°
